Location: Julian California
(33.0790°N, 116.6010°W)
Time: 05:40:26
(UTC-07:00)

Cosmos 1939 Rocket - Pass Details

Date: 19 May 2017
Orbit: 535 x 584 km, 97.5° (Epoch: 22 July)

Event Time Altitude Azimuth Distance (km) Brightness Sun altitude
Exits shadow 20:50:52 19° 151° (SSE) 1,336 4.2 -13.3°
Maximum altitude 20:53:32 59° 76° (ENE) 625 2.8 -13.8°
Drops below altitude 10° 20:57:20 10° 357° (N) 1,793 6.0 -14.4°
Sets 20:59:28 0° 354° (N) 2,686 7.0 -14.8°
